DG3OBU-6 Weather Reports


time (UTC)temp
F
wind
direction
speed
knots
gust
knots
rain 1hr
in
rain 24hr
in
rain mn
in
humidity
%
barometer
mb
20260503055003 59 99 0.0 0.0 0.00 0.00 0.00 85 1010.9
20260503054503 59 108 0.0 0.0 0.00 0.00 0.00 86 1010.9
20260503054003 58 109 0.0 0.0 0.00 0.00 0.00 87 1010.8
20260503053503 57 109 0.0 0.0 0.00 0.00 0.00 87 1010.8
20260503053003 57 109 0.0 0.0 0.00 0.00 0.00 87 1010.8
20260503052503 55 109 0.0 0.0 0.00 0.00 0.00 87 1010.8
20260503052002 55 109 0.0 0.0 0.00 0.00 0.00 87 1010.8
20260503051502 54 109 0.0 0.0 0.00 0.00 0.00 87 1010.8
20260503051002 53 109 0.0 0.0 0.00 0.00 0.00 87 1010.7
20260503050502 53 109 0.0 0.0 0.00 0.00 0.00 87 1010.7
20260503050002 52 109 0.0 0.0 0.00 0.00 0.00 87 1010.8
20260503035002 50 109 0.0 0.0 0.00 0.00 0.00 87 1011.6
20260503034502 50 109 0.0 0.0 0.00 0.00 0.00 87 1011.7
20260503034003 50 109 0.0 0.0 0.00 0.00 0.00 87 1011.6
20260503033503 50 109 0.0 0.0 0.00 0.00 0.00 87 1011.6
20260503033003 51 109 0.0 0.0 0.00 0.00 0.00 87 1011.7
20260503032503 51 109 0.0 0.0 0.00 0.00 0.00 87 1011.6
20260503032003 51 109 0.0 0.0 0.00 0.00 0.00 86 1011.6
20260503031503 51 109 0.0 0.0 0.00 0.00 0.00 86 1011.6
20260503031002 51 109 0.0 0.0 0.00 0.00 0.00 86 1011.7
20260503030503 51 108 0.0 0.0 0.00 0.00 0.00 86 1011.6
20260503030003 51 108 0.0 0.0 0.00 0.00 0.00 86 1011.6
20260503025503 51 108 0.0 0.0 0.00 0.00 0.00 86 1011.6
20260503025003 51 108 0.0 0.0 0.00 0.00 0.00 86 1011.5
20260503024502 50 108 0.0 0.0 0.00 0.00 0.00 86 1011.5
20260503024002 50 108 0.0 0.0 0.00 0.00 0.00 86 1011.5
20260503023502 50 108 0.0 0.0 0.00 0.00 0.00 85 1011.5
20260503023002 50 108 0.0 0.0 0.00 0.00 0.00 85 1011.7
20260503022502 51 108 0.0 0.0 0.00 0.00 0.00 85 1011.7
20260503022003 51 108 0.0 0.0 0.00 0.00 0.00 85 1011.6
20260503021503 52 108 0.0 0.0 0.00 0.00 0.00 85 1011.7
20260503021002 52 108 0.0 0.0 0.00 0.00 0.00 85 1011.8
20260503020502 52 108 0.0 0.0 0.00 0.00 0.00 85 1011.9
20260503020003 51 108 0.0 0.0 0.00 0.00 0.00 85 1012.0
20260503015502 51 108 0.0 0.0 0.00 0.00 0.00 84 1012.0
20260503015002 52 108 0.0 0.0 0.00 0.00 0.00 84 1012.1
20260503014502 52 108 0.0 0.0 0.00 0.00 0.00 84 1012.1
20260503014002 53 108 0.0 0.0 0.00 0.00 0.00 84 1012.1
20260503013502 53 108 0.0 0.0 0.00 0.00 0.00 84 1012.2
20260503012502 54 108 0.0 0.0 0.00 0.00 0.00 83 1012.4
20260503012002 54 108 0.0 0.0 0.00 0.00 0.00 83 1012.4
20260503011502 55 108 0.0 0.0 0.00 0.00 0.00 83 1012.5
20260503011002 55 108 0.0 0.0 0.00 0.00 0.00 83 1012.5
20260503010003 56 108 0.0 0.0 0.00 0.00 0.00 82 1012.4
20260503005502 57 108 0.0 0.0 0.00 0.00 0.00 82 1012.5
20260503005002 57 108 0.0 0.0 0.00 0.00 0.00 82 1012.5
20260503004502 57 108 0.0 0.0 0.00 0.00 0.00 81 1012.5
20260503004002 57 108 0.0 0.0 0.00 0.00 0.00 80 1012.4
20260503003502 58 108 0.0 0.0 0.00 0.00 0.00 80 1012.5
20260503003003 59 108 0.0 0.0 0.00 0.00 0.00 80 1012.5
20260503002503 59 108 0.0 0.0 0.00 0.00 0.00 79 1012.5
20260503002003 60 108 0.0 0.0 0.00 0.00 0.00 79 1012.6
20260503001503 60 108 0.0 0.0 0.00 0.00 0.00 78 1012.5
20260503001003 61 108 0.0 0.0 0.00 0.00 0.00 78 1012.6
20260503000502 61 108 0.0 0.0 0.00 0.00 0.00 78 1012.7
20260503000003 61 108 0.0 0.0 0.00 0.00 0.00 78 1012.7
20260502235502 61 108 0.0 0.0 0.00 0.00 0.00 78 1012.5
20260502235002 61 256 0.0 0.0 0.00 0.00 0.00 78 1012.6
20260502234502 61 256 0.0 0.0 0.00 0.00 0.00 78 1012.5
20260502234002 61 256 0.0 0.0 0.00 0.00 0.00 78 1012.7
20260502233502 61 256 0.0 0.0 0.00 0.00 0.00 78 1012.7
20260502233002 62 256 0.0 0.0 0.00 0.00 0.00 77 1013.1
20260502232502 62 256 0.0 0.0 0.00 0.00 0.00 77 1013.3
20260502232002 62 256 0.0 0.0 0.00 0.00 0.00 77 1013.8
20260502231502 62 256 0.0 0.0 0.00 0.00 0.00 76 1014.0
20260502231002 62 256 0.0 0.0 0.00 0.00 0.00 76 1014.1
20260502230502 62 256 0.0 0.0 0.00 0.00 0.00 76 1014.1
20260502230002 62 256 0.0 0.0 0.00 0.00 0.00 75 1014.1
20260502225502 63 258 0.0 0.0 0.00 0.00 0.00 74 1014.1
20260502225002 63 262 0.0 0.0 0.00 0.00 0.00 74 1014.0
20260502224502 63 262 0.0 0.0 0.00 0.00 0.00 74 1013.9
20260502224003 63 262 0.0 0.0 0.00 0.00 0.00 75 1013.9
20260502223503 63 265 0.0 0.0 0.00 0.00 0.00 76 1013.9
20260502223003 61 254 7.0 0.0 0.00 0.00 0.00 78 1014.1
20260502222503 59 247 0.0 0.0 0.00 0.00 0.00 81 1013.9
20260502222002 58 254 0.0 0.0 0.00 0.00 0.00 82 1013.8
20260502221502 58 254 0.0 0.0 0.00 0.00 0.00 82 1013.9
20260502221002 58 254 0.0 0.0 0.00 0.00 0.00 82 1014.0
20260502220502 58 256 0.0 0.0 0.00 0.00 0.00 82 1013.6
20260502215502 57 256 0.0 0.0 0.00 0.00 0.00 82 1013.3
20260502215002 57 256 0.0 0.0 0.00 0.00 0.00 82 1013.3
20260502214502 57 256 0.0 0.0 0.00 0.00 0.00 81 1013.3
20260502214002 58 256 0.0 0.0 0.00 0.00 0.00 82 1013.4
20260502213502 58 256 0.0 0.0 0.00 0.00 0.00 82 1013.5
20260502213002 57 256 0.0 0.0 0.00 0.00 0.00 82 1013.4
20260502212502 57 256 0.0 0.0 0.00 0.00 0.00 81 1013.4
20260502212002 57 256 0.0 0.0 0.00 0.00 0.00 81 1013.4
20260502211502 57 256 0.0 0.0 0.00 0.00 0.00 81 1013.4
20260502211002 57 256 0.0 0.0 0.00 0.00 0.00 80 1013.3
20260502210502 58 256 0.0 0.0 0.00 0.00 0.00 80 1013.3
20260502210003 58 256 0.0 0.0 0.00 0.00 0.00 80 1013.4
20260502205503 58 256 0.0 0.0 0.00 0.00 0.00 80 1013.4
20260502205003 58 256 0.0 0.0 0.00 0.00 0.00 80 1013.4
20260502204503 58 256 0.0 0.0 0.00 0.00 0.00 80 1013.4
20260502204003 58 256 0.0 0.0 0.00 0.00 0.00 79 1013.5
20260502203503 59 256 0.0 0.0 0.00 0.00 0.00 79 1013.5
20260502203003 58 256 0.0 0.0 0.00 0.00 0.00 79 1013.5
20260502202503 58 256 0.0 0.0 0.00 0.00 0.00 79 1013.6
20260502202003 59 256 0.0 0.0 0.00 0.00 0.00 79 1013.6
20260502201503 59 256 0.0 0.0 0.00 0.00 0.00 78 1013.6
20260502201003 59 256 0.0 0.0 0.00 0.00 0.00 77 1013.6
20260502200502 60 256 0.0 0.0 0.00 0.00 0.00 77 1013.7
20260502195502 60 256 0.0 0.0 0.00 0.00 0.00 77 1013.7
20260502195002 61 256 0.0 0.0 0.00 0.00 0.00 77 1013.6
20260502194502 61 256 0.0 0.0 0.00 0.00 0.00 76 1013.6
20260502194002 61 256 0.0 0.0 0.00 0.00 0.00 75 1013.6
20260502193502 62 256 0.0 0.0 0.00 0.00 0.00 75 1013.6
20260502193002 62 256 0.0 0.0 0.00 0.00 0.00 74 1013.6
20260502192502 63 256 0.0 0.0 0.00 0.00 0.00 74 1013.5
20260502192002 63 256 0.0 0.0 0.00 0.00 0.00 74 1013.5
20260502191502 63 256 0.0 0.0 0.00 0.00 0.00 73 1013.4
20260502191003 64 256 0.0 0.0 0.00 0.00 0.00 72 1013.4
20260502190503 65 256 0.0 0.0 0.00 0.00 0.00 72 1013.4
20260502190003 65 256 0.0 0.0 0.00 0.00 0.00 71 1013.4
20260502185503 66 256 0.0 0.0 0.00 0.00 0.00 71 1013.3
20260502185003 67 256 0.0 0.0 0.00 0.00 0.00 70 1013.3
20260502184503 67 256 0.0 0.0 0.00 0.00 0.00 69 1013.3
20260502184003 68 256 0.0 0.0 0.00 0.00 0.00 68 1013.4
20260502183503 69 256 0.0 0.0 0.00 0.00 0.00 68 1013.4
20260502183003 69 256 0.0 0.0 0.00 0.00 0.00 67 1013.5
20260502182503 70 256 0.0 0.0 0.00 0.00 0.00 66 1013.5
20260502182002 71 256 0.0 0.0 0.00 0.00 0.00 64 1013.6
20260502181502 71 256 0.0 0.0 0.00 0.00 0.00 61 1013.5
20260502181002 72 256 0.0 0.0 0.00 0.00 0.00 59 1013.5
20260502180502 72 256 0.0 0.0 0.00 0.00 0.00 59 1013.5
20260502170503 76 256 0.0 0.0 0.00 0.00 0.00 48 1013.7
20260502164003 77 245 0.0 0.0 0.00 0.00 0.00 46 1013.9
20260502163502 77 245 0.0 0.0 0.00 0.00 0.00 46 1013.9
20260502162502 77 245 0.0 0.0 0.00 0.00 0.00 45 1014.1
20260502162002 77 245 0.0 0.0 0.00 0.00 0.00 46 1014.2
20260502161502 78 245 0.0 0.0 0.00 0.00 0.00 45 1014.2
20260502161002 78 243 0.0 0.0 0.00 0.00 0.00 43 1014.2
20260502160502 78 225 0.0 0.0 0.00 0.00 0.00 42 1014.2
20260502152003 79 211 0.0 0.0 0.00 0.00 0.00 41 1014.5
20260502151503 79 235 0.0 0.0 0.00 0.00 0.00 41 1014.6
20260502151003 79 254 0.0 0.0 0.00 0.00 0.00 40 1014.6
20260502150502 79 245 1.7 0.0 0.00 0.00 0.00 41 1014.7
20260502130503 79 245 0.0 0.0 0.00 0.00 0.00 36 1016.0
20260502123502 78 269 0.0 0.0 0.00 0.00 0.00 37 1016.3
20260502123002 79 274 0.0 0.0 0.00 0.00 0.00 37 1016.4
20260502122502 79 170 0.0 0.0 0.00 0.00 0.00 38 1016.4
20260502122002 78 255 0.0 0.0 0.00 0.00 0.00 39 1016.5
20260502121502 78 189 0.0 0.0 0.00 0.00 0.00 38 1016.5
20260502121002 78 222 0.0 0.0 0.00 0.00 0.00 38 1016.6
20260502120502 78 243 0.0 0.0 0.00 0.00 0.00 39 1016.6
20260502115502 77 231 2.6 0.0 0.00 0.00 0.00 36 1016.9
20260502115003 77 205 5.2 0.0 0.00 0.00 0.00 39 1016.9
20260502114503 77 222 0.0 0.0 0.00 0.00 0.00 39 1017.0
20260502114003 77 206 0.0 0.0 0.00 0.00 0.00 38 1017.0
20260502113503 77 193 0.0 0.0 0.00 0.00 0.00 37 1017.1
20260502113003 77 208 0.0 0.0 0.00 0.00 0.00 38 1017.2
20260502112503 77 191 0.0 0.0 0.00 0.00 0.00 37 1017.3
20260502112003 77 218 0.0 0.0 0.00 0.00 0.00 37 1017.3
20260502111502 77 180 0.0 0.0 0.00 0.00 0.00 37 1017.3
20260502111002 77 186 0.0 0.0 0.00 0.00 0.00 41 1017.4
20260502110503 76 210 0.0 0.0 0.00 0.00 0.00 38 1017.5
20260502110002 76 247 0.0 0.0 0.00 0.00 0.00 38 1017.5
20260502105502 75 257 0.0 0.0 0.00 0.00 0.00 38 1017.5
20260502105002 76 191 0.0 0.0 0.00 0.00 0.00 38 1017.4
20260502104502 76 214 0.0 0.0 0.00 0.00 0.00 38 1017.6
20260502104002 76 218 5.2 0.0 0.00 0.00 0.00 40 1017.6
20260502103502 75 145 0.0 0.0 0.00 0.00 0.00 41 1017.7
20260502103002 75 211 0.0 0.0 0.00 0.00 0.00 40 1017.8
20260502102502 76 244 0.0 0.0 0.00 0.00 0.00 39 1017.8
20260502102002 75 191 2.6 0.0 0.00 0.00 0.00 40 1017.9
20260502101502 75 204 0.0 0.0 0.00 0.00 0.00 41 1017.9
20260502101002 75 186 0.0 0.0 0.00 0.00 0.00 41 1018.1
20260502100502 74 149 0.0 0.0 0.00 0.00 0.00 41 1018.1
20260502091503 73 193 4.3 0.0 0.00 0.00 0.00 40 1018.5
20260502091002 72 136 0.0 0.0 0.00 0.00 0.00 42 1018.5
20260502090502 72 177 0.0 0.0 0.00 0.00 0.00 42 1018.6
20260502071502 66 153 0.0 0.0 0.00 0.00 0.00 48 1019.1
20260502071002 65 193 0.0 0.0 0.00 0.00 0.00 48 1019.1
20260502070502 65 279 0.0 0.0 0.00 0.00 0.00 49 1019.2
20260502070002 64 283 0.0 0.0 0.00 0.00 0.00 50 1019.3
20260502065502 64 241 0.0 0.0 0.00 0.00 0.00 52 1019.3
20260502065002 63 216 0.0 0.0 0.00 0.00 0.00 51 1019.3
20260502064502 64 214 0.0 0.0 0.00 0.00 0.00 51 1019.3
20260502064002 64 234 0.0 0.0 0.00 0.00 0.00 53 1019.4
20260502063502 63 234 0.0 0.0 0.00 0.00 0.00 53 1019.4
20260502063002 63 208 0.0 0.0 0.00 0.00 0.00 52 1019.5
20260502062502 62 263 0.0 0.0 0.00 0.00 0.00 53 1019.4
20260502062002 62 103 0.0 0.0 0.00 0.00 0.00 54 1019.4
20260502061502 62 231 0.0 0.0 0.00 0.00 0.00 56 1019.5
20260502061002 61 222 0.0 0.0 0.00 0.00 0.00 56 1019.6
20260502060502 60 234 0.0 0.0 0.00 0.00 0.00 59 1019.6
20260502060002 59 234 0.0 0.0 0.00 0.00 0.00 61 1019.7